CET,Max TemperatureF,Mean TemperatureF,Min TemperatureF,Max Dew PointF,MeanDew PointF,Min DewpointF,Max Humidity, Mean Humidity, Min Humidity, Max Sea Level PressureIn, Mean Sea Level PressureIn, Min Sea Level PressureIn, Max VisibilityMiles, Mean VisibilityMiles, Min VisibilityMiles, Max Wind SpeedMPH, Mean Wind SpeedMPH, Max Gust SpeedMPH,PrecipitationIn, CloudCover, Events, WindDirDegrees
2011-11-1,60,46,32,43,37,30,100,79,45,30.21,30.19,30.15,5,2,1,4,2,,0.00,0,Fog,1
2011-11-2,60,46,32,45,36,32,100,82,45,30.21,30.19,30.15,4,2,0,9,4,,0.00,0,Fog,99
2011-11-3,59,44,30,43,36,28,100,85,55,30.15,30.10,30.06,4,2,0,11,2,,0.00,1,Fog,158
2011-11-4,55,42,28,43,39,28,100,82,62,30.09,30.05,30.01,5,3,0,16,6,25,0.00,2,Fog,142
2011-11-5,64,53,42,43,41,37,81,65,45,30.09,30.05,30.04,5,4,0,11,8,,0.00,,,129
2011-11-6,62,50,37,41,37,34,93,72,45,30.24,30.17,30.12,5,4,2,11,6,,0.00,1,,101
2011-11-7,57,48,39,45,40,36,93,76,55,30.33,30.29,30.24,5,3,0,18,7,27,0.00,3,Rain,129
2011-11-8,60,48,37,45,40,36,93,81,55,30.36,30.33,30.27,5,4,2,13,7,,0.00,0,Fog,110
2011-11-9,62,48,33,43,38,32,100,81,48,30.27,30.22,30.18,5,3,0,7,4,,0.00,0,Fog,350
2011-11-10,50,40,30,41,33,27,100,77,50,30.27,30.18,30.15,6,3,0,11,7,,0.00,3,Fog,34
2011-11-11,46,35,24,34,28,23,93,77,61,30.57,30.44,30.27,6,6,6,13,8,,0.00,3,,39
2011-11-12,42,30,19,30,25,18,93,80,57,30.63,30.61,30.57,5,4,1,7,4,,0.00,0,Fog,351
2011-11-13,50,34,19,34,25,19,100,79,43,30.63,30.59,30.54,5,4,1,4,3,,0.00,0,,256
2011-11-14,48,34,21,32,26,19,100,79,50,30.51,30.41,30.27,5,3,1,4,1,,0.00,2,Fog,193
2011-11-15,48,34,21,32,27,21,100,84,54,30.27,30.23,30.18,4,2,0,4,1,,0.00,2,Fog,20
2011-11-16,42,30,19,32,26,19,100,88,65,30.33,30.28,30.24,5,2,0,9,4,,0.00,0,Fog,356
2011-11-17,48,36,23,34,27,21,100,88,57,30.36,30.34,30.33,5,2,0,4,4,,0.00,1,Fog,2
2011-11-18,35,26,17,34,27,16,100,97,93,30.33,30.31,30.27,1,0,0,7,3,,0.00,6,Fog,269
2011-11-19,37,35,33,34,33,32,100,88,81,30.33,30.31,30.27,2,2,1,7,4,,0.00,8,,315
2011-11-20,35,34,33,32,31,30,87,85,81,30.36,30.34,30.33,2,2,2,4,2,,0.00,8,,119
2011-11-21,33,32,30,30,29,28,93,89,81,30.36,30.32,30.30,2,2,2,7,5,,0.00,8,,139
2011-11-22,30,29,28,28,28,27,100,95,93,30.36,30.30,30.27,3,2,1,7,4,,0.00,8,,97
2011-11-23,32,26,21,30,27,19,100,95,87,30.51,30.43,30.36,3,2,0,7,4,,0.00,5,Fog,6
2011-11-24,32,26,19,32,27,19,100,99,93,30.63,30.59,30.54,1,0,0,4,4,,0.00,7,Fog,286
2011-11-25,33,32,30,32,30,28,100,95,93,30.63,30.55,30.45,2,1,0,7,3,,0.00,8,Fog,240
2011-11-26,37,32,28,34,31,28,100,96,87,30.45,30.44,30.42,2,1,0,9,6,,0.00,7,Fog,241
2011-11-27,39,36,32,36,33,30,100,96,87,30.45,30.32,30.21,3,1,0,11,7,,0.00,7,Fog,217
2011-11-28,53,42,30,39,33,28,100,86,50,30.45,30.33,30.21,6,2,0,18,8,27,0.00,3,Fog,305
2011-11-29,33,32,30,32,31,28,100,98,93,30.45,30.42,30.39,2,1,0,7,6,,0.00,8,Fog,90
2011-11-30,32,30,28,32,29,27,100,99,93,30.45,30.38,30.33,1,0,0,7,3,,0.00,8,Fog,309